CZ-6A DEB, 56595

Orbit data source: Space-Track

CZ-6A DEB, 56595 is space debris in SSO originally from a launch on Fri, 11 Nov 2022 UTC launched from the Taiyaun Space Center, China (TSC). Debris objects in space refer to the collection of defunct objects orbiting the Earth. Examples of debris include non-operational satellites, rocket bodies, and fragments generated from explosions, collisions, or faulty payload assembly.

Loading next visibility...
Identifier
56595, 2022-151ADT
Orbit
SSO
Country
Flag of CNCN / PRC
Related business
Manufacturer
SAST
Mission
Spacecraft
Bus & Motor
Unknown
Mass
Unknown
Launch date (UTC)
2022-11-11 (4 years ago)
Launch vehicle
Unknown
Launch site
Taiyaun Space Center, China (TSC)
Object type
Payload
Rocket body
Debris
Shape & HBR
Unknown shape, 0.1 m
Radar Cross Section
Medium (>0.1 m² and <1 m²)

Expand to show TLE details & history
Last TLE update: 22 hours ago

TLE from 22 hours ago
0 CZ-6A DEB
1 56595U 22151ADT 26237.72816453  .00001132  00000-0  49276-3 0  9995
2 56595  98.7341 239.5463 0131769 339.3414  20.2465 14.21455847172774
Epoch: 2026-08-25T17:28Z
TLE epoch observation values (Epoch: 2026-08-25T17:28:33.415Z)
Latitude
0.00001°
Longitude
3.41572°
Altitude
734.491 km
Speed
7.534 km/s
True Right ascension
15h 58m 11s
True Declination
0° 00' 00"
Sunlit
Object was in daylight at epoch
Visualization orbit readout
Latitude
Unknown
Longitude
Unknown
Altitude
Unknown
Speed
Unknown
Apparent Right ascension
Unknown
Apparent Declination
Unknown
Sunlit
N/A
Visualization observer readout
Local Sidereal Time
06:20:16
Azimuth
Unknown
Elevation
Unknown
Doppler factor
Unknown
Orbital elements
Apogee altitude
912.408 km
Perigee altitude
722.773 km
Semi-major axis
7,195.728 km
Eccentricity
0.01318
Inclination
98.7341°
RAAN
239.5463°
Arg. of periapsis
339.3414°
True anomaly
20.77723°
Mean anomaly
20.2465°
Eccentric anomaly
20.51104°
Mean motion
3.55575 °/min
Orbital period
101.24 mins
BSTAR
0.00049276
Loading maneuver chart data...
Computing Atmospheric mass density...
Loading historical data...
Loading historical data...
Loading historical data...
Loading historical data...
Loading historical data...
Loading historical data...
Loading historical data...

Documentation

Showing up to 5 results
|